SL-16 DEB, 39854

Orbit data source: Space-Track

SL-16 DEB, 39854 is space debris in LEO originally from a launch on Fri, 25 Dec 1992 UTC launched from the Tyuratam Missile And Space Complex (TTMTR). Debris objects in space refer to the collection of defunct objects orbiting the Earth. Examples of debris include non-operational satellites, rocket bodies, and fragments generated from explosions, collisions, or faulty payload assembly.

Loading next visibility...
Identifier
39854, 1992-093LG
Orbit
LEO
Country
Flag of CISCIS
Related business
Manufacturer
Unknown
Mission
Spacecraft
Bus & Motor
Unknown
Mass
Unknown
Launch date (UTC)
1992-12-25 (33 years ago)
Launch vehicle
Unknown
Launch site
Tyuratam Missile And Space Complex (TTMTR)
Object type
Payload
Rocket body
Debris
Shape & HBR
Unknown shape, 0.1 m
Radar Cross Section
Small (<0.1 m²)

Expand to show TLE details & history
Last TLE update: 2 months ago

TLE from 2 months ago
0 SL-16 DEB
1 39854U 92093LG  26058.34385701  .00002017  00000-0  94075-3 0  9992
2 39854  71.0174  59.3355 0079926 321.5004  38.0435 14.19961643604949
Epoch: 2026-02-27T08:15Z
TLE epoch observation values (Epoch: 2026-02-27T08:15:09.245Z)
Latitude
-0.00005°
Longitude
138.36528°
Altitude
782.716 km
Speed
7.486 km/s
True Right ascension
03h 57m 20s
True Declination
0° 00' 00"
Sunlit
Object was in daylight at epoch
Visualization orbit readout
Latitude
Unknown
Longitude
Unknown
Altitude
Unknown
Speed
Unknown
Apparent Right ascension
Unknown
Apparent Declination
Unknown
Sunlit
N/A
Visualization observer readout
Local Sidereal Time
19:34:28
Azimuth
Unknown
Elevation
Unknown
Doppler factor
Unknown
Orbital elements
Apogee altitude
880.96 km
Perigee altitude
765.842 km
Semi-major axis
7,201.538 km
Eccentricity
0.00799
Inclination
71.0174°
RAAN
59.3355°
Arg. of periapsis
321.5004°
True anomaly
38.61239°
Mean anomaly
38.0435°
Eccentric anomaly
38.3275°
Mean motion
3.55145 °/min
Orbital period
101.37 mins
BSTAR
0.00094075
Loading maneuver chart data...
Computing Atmospheric mass density...
Loading historical data...
Loading historical data...
Loading historical data...
Loading historical data...
Loading historical data...
Loading historical data...
Loading historical data...

Documentation

Showing up to 5 results
|